����������;��������(kVARh)
2016-09-12 00:00;12,6
2016-09-12 00:15;10,55
2016-09-12 00:30;9,6
2016-09-12 00:45;10
2016-09-12 01:00;5,85
2016-09-12 01:15;3,35
2016-09-12 01:30;1,15
2016-09-12 01:45;6
2016-09-12 02:00;4,05
2016-09-12 02:15;2,55
2016-09-12 02:30;4,85
2016-09-12 02:45;3,45
2016-09-12 03:00;2,55
2016-09-12 03:15;8,9
2016-09-12 03:30;5,05
2016-09-12 03:45;2,5
2016-09-12 04:00;8,3
2016-09-12 04:15;6,8
2016-09-12 04:30;3,5
2016-09-12 04:45;4,55
2016-09-12 05:00;5,85
2016-09-12 05:15;2,5
2016-09-12 05:30;5,1
2016-09-12 05:45;6,95
2016-09-12 06:00;2,3
2016-09-12 06:15;2,35
2016-09-12 06:30;5,3
2016-09-12 06:45;2
2016-09-12 07:00;4,1
2016-09-12 07:15;9,05
2016-09-12 07:30;1,85
2016-09-12 07:45;9,95
2016-09-12 08:00;21,35
2016-09-12 08:15;14,4
2016-09-12 08:30;15,6
2016-09-12 08:45;19,2
2016-09-12 09:00;23,25
2016-09-12 09:15;31,35
2016-09-12 09:30;34,2
2016-09-12 09:45;40,4
2016-09-12 10:00;40,05
2016-09-12 10:15;40,3
2016-09-12 10:30;45,15
2016-09-12 10:45;40,5
2016-09-12 11:00;38,8
2016-09-12 11:15;49,3
2016-09-12 11:30;49,75
2016-09-12 11:45;48,3
2016-09-12 12:00;42,75
2016-09-12 12:15;56,7
2016-09-12 12:30;51,15
2016-09-12 12:45;40,05
2016-09-12 13:00;48,55
2016-09-12 13:15;50,15
2016-09-12 13:30;48,6
2016-09-12 13:45;39,75
2016-09-12 14:00;37,05
2016-09-12 14:15;35,5
2016-09-12 14:30;36,15
2016-09-12 14:45;32,75
2016-09-12 15:00;39,4
2016-09-12 15:15;40,7
2016-09-12 15:30;34,4
2016-09-12 15:45;35,2
2016-09-12 16:00;35,8
2016-09-12 16:15;32,65
2016-09-12 16:30;31,55
2016-09-12 16:45;34,2
2016-09-12 17:00;32,65
2016-09-12 17:15;30,4
2016-09-12 17:30;30,95
2016-09-12 17:45;33,95
2016-09-12 18:00;34
2016-09-12 18:15;35,7
2016-09-12 18:30;30,4
2016-09-12 18:45;29,2
2016-09-12 19:00;35,9
2016-09-12 19:15;35,6
2016-09-12 19:30;30,3
2016-09-12 19:45;27,2
2016-09-12 20:00;23,05
2016-09-12 20:15;17,85
2016-09-12 20:30;15,65
2016-09-12 20:45;15,55
2016-09-12 21:00;9,95
2016-09-12 21:15;15,4
2016-09-12 21:30;15,25
2016-09-12 21:45;12,6
2016-09-12 22:00;12,95
2016-09-12 22:15;13,7
2016-09-12 22:30;10,85
2016-09-12 22:45;12,55
2016-09-12 23:00;16,7
2016-09-12 23:15;16,5
2016-09-12 23:30;11,95
2016-09-12 23:45;13,75
2016-09-13 00:00;19,6
2016-09-13 00:15;17
2016-09-13 00:30;16,4
2016-09-13 00:45;15,2
2016-09-13 01:00;5,4
2016-09-13 01:15;11,1
2016-09-13 01:30;12,9
2016-09-13 01:45;9,6
2016-09-13 02:00;12,45
2016-09-13 02:15;18,2
2016-09-13 02:30;14,25
2016-09-13 02:45;10,4
2016-09-13 03:00;7,5
2016-09-13 03:15;12,35
2016-09-13 03:30;6,6
2016-09-13 03:45;5,55
2016-09-13 04:00;13,5
2016-09-13 04:15;4,55
2016-09-13 04:30;7,55
2016-09-13 04:45;7,8
2016-09-13 05:00;12,5
2016-09-13 05:15;5,9
2016-09-13 05:30;1,85
2016-09-13 05:45;8
2016-09-13 06:00;14,2
2016-09-13 06:15;9,55
2016-09-13 06:30;12,8
2016-09-13 06:45;3,8
2016-09-13 07:00;6,25
2016-09-13 07:15;12,85
2016-09-13 07:30;8,15
2016-09-13 07:45;17,15
2016-09-13 08:00;19,35
2016-09-13 08:15;32,25
2016-09-13 08:30;28,9
2016-09-13 08:45;26,6
2016-09-13 09:00;42,7
2016-09-13 09:15;40,8
2016-09-13 09:30;36,6
2016-09-13 09:45;40,2
2016-09-13 10:00;41,3
2016-09-13 10:15;51,95
2016-09-13 10:30;61,45
2016-09-13 10:45;55,25
2016-09-13 11:00;54,5
2016-09-13 11:15;61,95
2016-09-13 11:30;53,05
2016-09-13 11:45;55,35
2016-09-13 12:00;60,2
2016-09-13 12:15;60,9
2016-09-13 12:30;50,95
2016-09-13 12:45;52,75
2016-09-13 13:00;59
2016-09-13 13:15;56,3
2016-09-13 13:30;46,7
2016-09-13 13:45;51,3
2016-09-13 14:00;53,15
2016-09-13 14:15;50,55
2016-09-13 14:30;53,15
2016-09-13 14:45;53,05
2016-09-13 15:00;52,75
2016-09-13 15:15;49,1
2016-09-13 15:30;50,75
2016-09-13 15:45;50,1
2016-09-13 16:00;41,9
2016-09-13 16:15;51,2
2016-09-13 16:30;38,8
2016-09-13 16:45;31,9
2016-09-13 17:00;37,85
2016-09-13 17:15;41,2
2016-09-13 17:30;33,85
2016-09-13 17:45;28,25
2016-09-13 18:00;30,9
2016-09-13 18:15;26,05
2016-09-13 18:30;16,7
2016-09-13 18:45;14,2
2016-09-13 19:00;16,2
2016-09-13 19:15;14,7
2016-09-13 19:30;11,4
2016-09-13 19:45;6,7
2016-09-13 20:00;7
2016-09-13 20:15;11,9
2016-09-13 20:30;9,55
2016-09-13 20:45;11,7
2016-09-13 21:00;15
2016-09-13 21:15;16,4
2016-09-13 21:30;17,5
2016-09-13 21:45;17,8
2016-09-13 22:00;17,35
2016-09-13 22:15;19,35
2016-09-13 22:30;16,75
2016-09-13 22:45;10,4
2016-09-13 23:00;7,15
2016-09-13 23:15;9,95
2016-09-13 23:30;13,25
2016-09-13 23:45;6,8
2016-09-14 00:00;3,75
2016-09-14 00:15;4
2016-09-14 00:30;5,4
2016-09-14 00:45;0,5
2016-09-14 01:00;0,5
2016-09-14 01:15;0,2
2016-09-14 01:30;0,3
2016-09-14 01:45;1,1
2016-09-14 02:00;1,05
2016-09-14 02:15;0,65
2016-09-14 02:30;0,25
2016-09-14 02:45;0,75
2016-09-14 03:00;0,85
2016-09-14 03:15;0,65
2016-09-14 03:30;1,35
2016-09-14 03:45;1,65
2016-09-14 04:00;1,2
2016-09-14 04:15;1,8
2016-09-14 04:30;1,75
2016-09-14 04:45;1,55
2016-09-14 05:00;1,2
2016-09-14 05:15;1,4
2016-09-14 05:30;1,3
2016-09-14 05:45;2,45
2016-09-14 06:00;6,15
2016-09-14 06:15;7
2016-09-14 06:30;4,9
2016-09-14 06:45;2,35
2016-09-14 07:00;9,7
2016-09-14 07:15;17,7
2016-09-14 07:30;8,25
2016-09-14 07:45;23,9
2016-09-14 08:00;18,6
2016-09-14 08:15;18,15
2016-09-14 08:30;17,35
2016-09-14 08:45;23,45
2016-09-14 09:00;29,5
2016-09-14 09:15;24,6
2016-09-14 09:30;23,35
2016-09-14 09:45;28,6
2016-09-14 10:00;33,8
2016-09-14 10:15;32,95
2016-09-14 10:30;37,9
2016-09-14 10:45;47,95
2016-09-14 11:00;41,1
2016-09-14 11:15;37,9
2016-09-14 11:30;42,4
2016-09-14 11:45;44,65
2016-09-14 12:00;47,75
2016-09-14 12:15;50,15
2016-09-14 12:30;49
2016-09-14 12:45;44,85
2016-09-14 13:00;47,1
2016-09-14 13:15;50,65
2016-09-14 13:30;44,85
2016-09-14 13:45;50,2
2016-09-14 14:00;55,2
2016-09-14 14:15;45,65
2016-09-14 14:30;42,3
2016-09-14 14:45;47,65
2016-09-14 15:00;44,1
2016-09-14 15:15;39,85
2016-09-14 15:30;42,7
2016-09-14 15:45;53,05
2016-09-14 16:00;43,15
2016-09-14 16:15;38,65
2016-09-14 16:30;42,7
2016-09-14 16:45;49,8
2016-09-14 17:00;36,35
2016-09-14 17:15;33
2016-09-14 17:30;35,3
2016-09-14 17:45;34,1
2016-09-14 18:00;24,7
2016-09-14 18:15;26,35
2016-09-14 18:30;27,7
2016-09-14 18:45;26,75
2016-09-14 19:00;18,95
2016-09-14 19:15;14,6
2016-09-14 19:30;16,2
2016-09-14 19:45;16,55
2016-09-14 20:00;10,95
2016-09-14 20:15;7,7
2016-09-14 20:30;7,75
2016-09-14 20:45;2,65
2016-09-14 21:00;2,85
2016-09-14 21:15;4,5
2016-09-14 21:30;3,85
2016-09-14 21:45;3,9
2016-09-14 22:00;4,05
2016-09-14 22:15;1,3
2016-09-14 22:30;2,55
2016-09-14 22:45;4,25
2016-09-14 23:00;6
2016-09-14 23:15;5,9
2016-09-14 23:30;0,1
2016-09-14 23:45;0,35
2016-09-15 00:00;1,2
2016-09-15 00:15;3,8
2016-09-15 00:30;2,15
2016-09-15 00:45;0,55
2016-09-15 01:00;0
2016-09-15 01:15;0
2016-09-15 01:30;0
2016-09-15 01:45;0,25
2016-09-15 02:00;0
2016-09-15 02:15;0
2016-09-15 02:30;0
2016-09-15 02:45;0
2016-09-15 03:00;0
2016-09-15 03:15;0
2016-09-15 03:30;0
2016-09-15 03:45;0,05
2016-09-15 04:00;0
2016-09-15 04:15;0
2016-09-15 04:30;0
2016-09-15 04:45;0,2
2016-09-15 05:00;0,15
2016-09-15 05:15;0
2016-09-15 05:30;0
2016-09-15 05:45;1
2016-09-15 06:00;2,35
2016-09-15 06:15;2,25
2016-09-15 06:30;1,65
2016-09-15 06:45;0
2016-09-15 07:00;0,55
2016-09-15 07:15;8,85
2016-09-15 07:30;6,4
2016-09-15 07:45;26,8
2016-09-15 08:00;27,1
2016-09-15 08:15;19,1
2016-09-15 08:30;25,6
2016-09-15 08:45;26,1
2016-09-15 09:00;24,5
2016-09-15 09:15;22
2016-09-15 09:30;35,55
2016-09-15 09:45;32,5
2016-09-15 10:00;34,15
2016-09-15 10:15;37,1
2016-09-15 10:30;40,55
2016-09-15 10:45;53,55
2016-09-15 11:00;49,8
2016-09-15 11:15;40,15
2016-09-15 11:30;45,25
2016-09-15 11:45;45,7
2016-09-15 12:00;40,9
2016-09-15 12:15;43,15
2016-09-15 12:30;45,6
2016-09-15 12:45;41,95
2016-09-15 13:00;37,15
2016-09-15 13:15;43,4
2016-09-15 13:30;42,9
2016-09-15 13:45;46,15
2016-09-15 14:00;42,8
2016-09-15 14:15;48,2
2016-09-15 14:30;41,9
2016-09-15 14:45;56,3
2016-09-15 15:00;59,55
2016-09-15 15:15;50,7
2016-09-15 15:30;53,45
2016-09-15 15:45;55,45
2016-09-15 16:00;50,8
2016-09-15 16:15;45,25
2016-09-15 16:30;49,95
2016-09-15 16:45;40,25
2016-09-15 17:00;29,15
2016-09-15 17:15;32,3
2016-09-15 17:30;37,1
2016-09-15 17:45;28,75
2016-09-15 18:00;23,45
2016-09-15 18:15;21,45
2016-09-15 18:30;16,5
2016-09-15 18:45;16,9
2016-09-15 19:00;14,55
2016-09-15 19:15;12,2
2016-09-15 19:30;10,05
2016-09-15 19:45;9,35
2016-09-15 20:00;2,8
2016-09-15 20:15;8,1
2016-09-15 20:30;6,9
2016-09-15 20:45;9,15
2016-09-15 21:00;12,8
2016-09-15 21:15;14,75
2016-09-15 21:30;17,95
2016-09-15 21:45;15,15
2016-09-15 22:00;14,85
2016-09-15 22:15;15,3
2016-09-15 22:30;14,45
2016-09-15 22:45;13,1
2016-09-15 23:00;13,35
2016-09-15 23:15;10,25
2016-09-15 23:30;12,7
2016-09-15 23:45;15,35
2016-09-16 00:00;17,1
2016-09-16 00:15;16,05
2016-09-16 00:30;18,65
2016-09-16 00:45;8,65
2016-09-16 01:00;4,8
2016-09-16 01:15;6,05
2016-09-16 01:30;5,5
2016-09-16 01:45;2
2016-09-16 02:00;2,2
2016-09-16 02:15;3,75
2016-09-16 02:30;2,25
2016-09-16 02:45;3,55
2016-09-16 03:00;3,9
2016-09-16 03:15;3,95
2016-09-16 03:30;5
2016-09-16 03:45;4,6
2016-09-16 04:00;4,5
2016-09-16 04:15;5,7
2016-09-16 04:30;5
2016-09-16 04:45;3,8
2016-09-16 05:00;5,1
2016-09-16 05:15;3,55
2016-09-16 05:30;3,7
2016-09-16 05:45;4,5
2016-09-16 06:00;9
2016-09-16 06:15;10,2
2016-09-16 06:30;10,05
2016-09-16 06:45;9,4
2016-09-16 07:00;3,35
2016-09-16 07:15;7,05
2016-09-16 07:30;19,8
2016-09-16 07:45;34,8
2016-09-16 08:00;30,45
2016-09-16 08:15;33,2
2016-09-16 08:30;39,1
2016-09-16 08:45;28,75
2016-09-16 09:00;30,05
2016-09-16 09:15;37,45
2016-09-16 09:30;34,05
2016-09-16 09:45;29,4
2016-09-16 10:00;37,4
2016-09-16 10:15;43,45
2016-09-16 10:30;40,3
2016-09-16 10:45;43
2016-09-16 11:00;45,25
2016-09-16 11:15;48,15
2016-09-16 11:30;41,15
2016-09-16 11:45;43,6
2016-09-16 12:00;45,7
2016-09-16 12:15;43
2016-09-16 12:30;42,55
2016-09-16 12:45;49,25
2016-09-16 13:00;45,45
2016-09-16 13:15;42
2016-09-16 13:30;44,95
2016-09-16 13:45;52,95
2016-09-16 14:00;51,3
2016-09-16 14:15;43,45
2016-09-16 14:30;50,5
2016-09-16 14:45;49,6
2016-09-16 15:00;46
2016-09-16 15:15;49,7
2016-09-16 15:30;48,85
2016-09-16 15:45;43,3
2016-09-16 16:00;36,45
2016-09-16 16:15;50,45
2016-09-16 16:30;42,5
2016-09-16 16:45;38,9
2016-09-16 17:00;45,15
2016-09-16 17:15;43,3
2016-09-16 17:30;30,6
2016-09-16 17:45;27,7
2016-09-16 18:00;29,95
2016-09-16 18:15;25,35
2016-09-16 18:30;17,5
2016-09-16 18:45;18,25
2016-09-16 19:00;17,5
2016-09-16 19:15;18,85
2016-09-16 19:30;15
2016-09-16 19:45;16,05
2016-09-16 20:00;10,4
2016-09-16 20:15;6,1
2016-09-16 20:30;5,9
2016-09-16 20:45;6,1
2016-09-16 21:00;6,95
2016-09-16 21:15;11,55
2016-09-16 21:30;11,85
2016-09-16 21:45;12,55
2016-09-16 22:00;15,4
2016-09-16 22:15;14,65
2016-09-16 22:30;17,45
2016-09-16 22:45;16,5
2016-09-16 23:00;19,25
2016-09-16 23:15;19,65
2016-09-16 23:30;15,05
2016-09-16 23:45;12,15
2016-09-17 00:00;2,8
2016-09-17 00:15;2,35
2016-09-17 00:30;3,1
2016-09-17 00:45;5,45
2016-09-17 01:00;5,85
2016-09-17 01:15;1,15
2016-09-17 01:30;0,85
2016-09-17 01:45;1,35
2016-09-17 02:00;2,1
2016-09-17 02:15;0,5
2016-09-17 02:30;0,65
2016-09-17 02:45;1,25
2016-09-17 03:00;2,15
2016-09-17 03:15;2,1
2016-09-17 03:30;3,25
2016-09-17 03:45;2,8
2016-09-17 04:00;2,3
2016-09-17 04:15;3,2
2016-09-17 04:30;2,05
2016-09-17 04:45;2,35
2016-09-17 05:00;2,5
2016-09-17 05:15;3,5
2016-09-17 05:30;2,45
2016-09-17 05:45;2,25
2016-09-17 06:00;4,3
2016-09-17 06:15;4,55
2016-09-17 06:30;4,5
2016-09-17 06:45;2,25
2016-09-17 07:00;2,8
2016-09-17 07:15;4,2
2016-09-17 07:30;2,25
2016-09-17 07:45;1,8
2016-09-17 08:00;1,65
2016-09-17 08:15;0,3
2016-09-17 08:30;0,8
2016-09-17 08:45;0
2016-09-17 09:00;0
2016-09-17 09:15;5,7
2016-09-17 09:30;8,3
2016-09-17 09:45;7,45
2016-09-17 10:00;3,5
2016-09-17 10:15;10,2
2016-09-17 10:30;13,15
2016-09-17 10:45;11,6
2016-09-17 11:00;10
2016-09-17 11:15;7,4
2016-09-17 11:30;4,2
2016-09-17 11:45;0,85
2016-09-17 12:00;3,85
2016-09-17 12:15;3,75
2016-09-17 12:30;2,85
2016-09-17 12:45;2
2016-09-17 13:00;1,7
2016-09-17 13:15;1,8
2016-09-17 13:30;2,1
2016-09-17 13:45;1,3
2016-09-17 14:00;1,5
2016-09-17 14:15;0,95
2016-09-17 14:30;2,55
2016-09-17 14:45;1,5
2016-09-17 15:00;3,65
2016-09-17 15:15;5,05
2016-09-17 15:30;4,35
2016-09-17 15:45;4,65
2016-09-17 16:00;4,95
2016-09-17 16:15;5,4
2016-09-17 16:30;4,9
2016-09-17 16:45;4,6
2016-09-17 17:00;6,9
2016-09-17 17:15;5,3
2016-09-17 17:30;6,65
2016-09-17 17:45;3,95
2016-09-17 18:00;6,65
2016-09-17 18:15;8,9
2016-09-17 18:30;9
2016-09-17 18:45;10,95
2016-09-17 19:00;11,25
2016-09-17 19:15;13
2016-09-17 19:30;8,45
2016-09-17 19:45;6,35
2016-09-17 20:00;6,15
2016-09-17 20:15;5,3
2016-09-17 20:30;5,6
2016-09-17 20:45;5,35
2016-09-17 21:00;6,1
2016-09-17 21:15;7,9
2016-09-17 21:30;15,5
2016-09-17 21:45;15,5
2016-09-17 22:00;13,7
2016-09-17 22:15;15,1
2016-09-17 22:30;17,85
2016-09-17 22:45;20,05
2016-09-17 23:00;22,4
2016-09-17 23:15;19,4
2016-09-17 23:30;17,35
2016-09-17 23:45;17,4
2016-09-18 00:00;19,25
2016-09-18 00:15;19,8
2016-09-18 00:30;14,15
2016-09-18 00:45;11,75
2016-09-18 01:00;10,75
2016-09-18 01:15;11,8
2016-09-18 01:30;10,55
2016-09-18 01:45;11,3
2016-09-18 02:00;11,2
2016-09-18 02:15;11,55
2016-09-18 02:30;5,5
2016-09-18 02:45;5,75
2016-09-18 03:00;5,9
2016-09-18 03:15;7,05
2016-09-18 03:30;8,1
2016-09-18 03:45;7,05
2016-09-18 04:00;7,4
2016-09-18 04:15;8,05
2016-09-18 04:30;8,25
2016-09-18 04:45;8,15
2016-09-18 05:00;9,55
2016-09-18 05:15;2,35
2016-09-18 05:30;2,3
2016-09-18 05:45;1,55
2016-09-18 06:00;2,2
2016-09-18 06:15;2,9
2016-09-18 06:30;2,45
2016-09-18 06:45;2,4
2016-09-18 07:00;2,3
2016-09-18 07:15;3,5
2016-09-18 07:30;4,95
2016-09-18 07:45;2,85
2016-09-18 08:00;3,15
2016-09-18 08:15;0,75
2016-09-18 08:30;1,75
2016-09-18 08:45;2,05
2016-09-18 09:00;4,2
2016-09-18 09:15;5,3
2016-09-18 09:30;4,4
2016-09-18 09:45;6,45
2016-09-18 10:00;9,5
2016-09-18 10:15;9
2016-09-18 10:30;8,1
2016-09-18 10:45;4,85
2016-09-18 11:00;4,15
2016-09-18 11:15;6,8
2016-09-18 11:30;5,7
2016-09-18 11:45;6,25
2016-09-18 12:00;5,05
2016-09-18 12:15;5,4
2016-09-18 12:30;5,45
2016-09-18 12:45;6,55
2016-09-18 13:00;6,1
2016-09-18 13:15;11,4
2016-09-18 13:30;11
2016-09-18 13:45;12
2016-09-18 14:00;12,05
2016-09-18 14:15;15,7
2016-09-18 14:30;15,6
2016-09-18 14:45;15,2
2016-09-18 15:00;16,1
2016-09-18 15:15;15,35
2016-09-18 15:30;15,1
2016-09-18 15:45;14,7
2016-09-18 16:00;15,3
2016-09-18 16:15;13,6
2016-09-18 16:30;14,4
2016-09-18 16:45;14,9
2016-09-18 17:00;14,95
2016-09-18 17:15;16,1
2016-09-18 17:30;19,2
2016-09-18 17:45;16,15
2016-09-18 18:00;15,75
2016-09-18 18:15;11,8
2016-09-18 18:30;10,25
2016-09-18 18:45;11,85
2016-09-18 19:00;10,85
2016-09-18 19:15;13,1
2016-09-18 19:30;9,05
2016-09-18 19:45;7,1
2016-09-18 20:00;4,45
2016-09-18 20:15;4,9
2016-09-18 20:30;5
2016-09-18 20:45;4
2016-09-18 21:00;4,9
2016-09-18 21:15;4,9
2016-09-18 21:30;2,4
2016-09-18 21:45;2,45
2016-09-18 22:00;2,9
2016-09-18 22:15;3,55
2016-09-18 22:30;4,6
2016-09-18 22:45;7,5
2016-09-18 23:00;6,7
2016-09-18 23:15;5,3
2016-09-18 23:30;3,55
2016-09-18 23:45;5,15

